[[{"header":{"parameterUnit":"m.s-1","parameterCategory":2,"la1":30.2991,"la2":30.254,"lo1":-89.0895,"lo2":-89.0444,"dy":0.0017,"dx":0.0017,"nx":28,"ny":28,"refTime":"2025-07-29T21:00:00:Z","depth":"0","parameterNumber":2,"parameterNumberName":"U-component_of_CURRENTS"},"data":[0,0,0,0,0,0,0,0,0,0,0,0,0,0,0,0,0,0,0,0,0,0,0,0,0,0,0,0,0,0,0,0,0,0,0,0,0,0,0,0,0,0,0,0,0,0,0,0,0,0,0,0,0,0,0,0,0,0,0.3105,0.3105,0,0.3154,0.3155,0.3156,0.3161,0.316,0.316,0.3159,0.3115,0.3114,0.3113,0,0,0,0,0,0,0,0,0,0,0,0,0,0.3032,0.3033,0.3105,0.3105,0.3106,0.3154,0.3155,0.3156,0.3161,0.316,0.3159,0.3159,0.3115,0.3114,0.3113,0,0,0,0,0,0,0,0,0,0,0,0,0,0.3072,0.3034,0.3104,0.3113,0.3114,0.3154,0.3155,0.3156,0.3161,0.316,0.3159,0.3158,0.3115,0.3114,0.3113,0.3127,0,0,0.3111,0.311,0,0,0,0,0,0,0,0,0.307,0.3075,0.3111,0.3112,0.3114,0.3149,0.3113,0.3141,0.3161,0.3145,0.3159,0.3158,0.3117,0.3116,0.3131,0.3125,0.3123,0.3111,0.311,0.311,0.3109,0,0,0,0,0,0,0,0.3067,0.3073,0.3126,0.3112,0.3113,0.312,0.3125,0.3119,0.3135,0.3146,0.3146,0.315,0.3117,0.3132,0.313,0.3123,0.3111,0.311,0.3109,0.3109,0.3138,0.3139,0,0,0,0,0,0,0.3059,0.3071,0.3124,0.3127,0.3087,0.3122,0.3128,0.314,0.3137,0.3136,0.3151,0.315,0.3134,0.3131,0.3128,0.3165,0.311,0.3109,0.3108,0.3137,0.3138,0.314,0,0,0,0,0,0,0.3057,0.3063,0.3122,0.3098,0.3106,0.3124,0.3138,0.3141,0.3164,0.3142,0.3139,0.3171,0.3133,0.3129,0.3137,0.3162,0.3108,0.3108,0.3135,0.3137,0.3139,0.3226,0,0,0,0,0,0,0.3055,0.3063,0.3074,0.3098,0.3107,0.314,0.3139,0.3143,0.3167,0.3166,0.3158,0.3152,0.3132,0.3139,0.3137,0.316,0.3107,0.3133,0.3136,0.3138,0.3221,0.3231,0.3238,0,0,0,0,0,0.3052,0.3074,0.3075,0.3081,0.3121,0.314,0.3145,0.3156,0.3169,0.3175,0.3182,0.3153,0.3152,0.314,0.3137,0.316,0.3132,0.3135,0.3138,0.3218,0.3229,0.3238,0,0,0,0,0,0,0.3053,0.3078,0.3078,0.3108,0.3117,0.314,0.3152,0.3168,0.3184,0.3182,0.3173,0.3168,0.3191,0.3162,0.3149,0.3176,0.3136,0.3139,0.3198,0.3208,0.3216,0.3222,0.3106,0,0,0,0,0,0.3058,0.3076,0.3093,0.3113,0.3119,0.314,0.3154,0.3159,0.3174,0.3182,0.3179,0.318,0.3202,0.3193,0.3196,0.3204,0.3214,0.3216,0.3225,0.3232,0.3235,0.3289,0.3303,0.3149,0.3149,0.3149,0,0,0.3071,0.3078,0.3095,0.3114,0.3124,0.314,0.3147,0.3163,0.3185,0.3172,0.32,0.3214,0.3215,0.3237,0.3242,0.3211,0.3284,0.3236,0.3242,0.3241,0.3294,0.3309,0.3322,0.3151,0.3151,0.315,0,0,0.3077,0.3103,0.3108,0.312,0.3126,0.3144,0.3152,0.3174,0.3191,0.3222,0.3234,0.3267,0.3271,0.3289,0.33,0.3354,0.3341,0.3347,0.338,0.3433,0.3446,0.3458,0.3506,0.3521,0.3335,0.3335,0.3335,0,0.3083,0.3096,0.3112,0.3112,0.3129,0.3149,0.316,0.3189,0.3213,0.3236,0.3231,0.3305,0.3304,0.3364,0.3385,0.3376,0.3398,0.3344,0.3446,0.3458,0.3468,0.3514,0.353,0.334,0.3339,0.3339,0.3338,0,0.309,0.3099,0.3105,0.3116,0.3136,0.3152,0.3184,0.3211,0.3244,0.3273,0.334,0.3366,0.3403,0.3419,0.3422,0.3497,0.3489,0.3467,0.3424,0.349,0.3533,0.3548,0.3346,0.3345,0.3343,0.3342,0,0,0.3098,0.3108,0.311,0.3106,0.3143,0.3154,0.3204,0.3252,0.3288,0.3336,0.3395,0.3465,0.3485,0.3499,0.3513,0.3559,0.3668,0.3544,0.3544,0.3597,0.379,0.3777,0.3792,0.3666,0.3669,0.3671,0.3796,0,0.3092,0.3089,0.3109,0.3122,0.3124,0.317,0.3213,0.3261,0.3313,0.337,0.344,0.3495,0.3513,0.3537,0.3597,0.3652,0.3708,0.3636,0.3711,0.3714,0.37,0.3809,0.3697,0.3798,0.3811,0.3813,0.3815,0,0.3077,0.3082,0.3085,0.3107,0.3117,0.3135,0.3206,0.3247,0.3342,0.3384,0.3468,0.3518,0.3622,0.361,0.3762,0.3716,0.3762,0.3802,0.3807,0.3772,0.3729,0.373,0.3825,0.3687,0.3838,0.3836,0.3834,0,0.3036,0.3058,0.3058,0.307,0.3109,0.3128,0.3165,0.3246,0.3285,0.3393,0.3434,0.3563,0.362,0.3724,0.3832,0.3799,0.3988,0.3943,0.398,0.3978,0.3885,0.3871,0.3857,0.4046,0.4045,0.4045,0.4045,0,0.2997,0.299,0.3034,0.3029,0.3049,0.309,0.3121,0.3183,0.3266,0.3313,0.343,0.3496,0.3651,0.3775,0.3862,0.3992,0.402,0.4019,0.4024,0.3912,0.39,0.3774,0.366,0.405,0.4049,0.4048,0.4047,0,0.2902,0.2936,0.2943,0.2999,0.3011,0.3026,0.3082,0.3106,0.3197,0.3266,0.3303,0.3467,0.3635,0.3795,0.3967,0.4017,0.4029,0.4168,0.4033,0.402,0.3897,0.3791,0.3697,0.3612,0.4226,0.4227,0.4227,0,0.2848,0.2829,0.2905,0.2912,0.2924,0.2952,0.2963,0.3059,0.3094,0.3244,0.3275,0.3459,0.3587,0.3862,0.3998,0.4175,0.4037,0.4146,0.4061,0.3906,0.3791,0.3649,0.3573,0.3978,0.3976,0.3975,0.3974,0,0.2737,0.2768,0.2785,0.2815,0.2831,0.2854,0.2887,0.2909,0.3024,0.3089,0.3204,0.3323,0.3596,0.3759,0.4001,0.4076,0.3929,0.4124,0.3996,0.3634,0.3443,0.3357,0.3876,0.3963,0.3964,0.3965,0.3965,0.3966,0.2667,0.2669,0.27,0.272,0.2731,0.2744,0.2734,0.2786,0.2839,0.2923,0.3088,0.3214,0.3492,0.382,0.3884,0.3876,0.384,0.3809,0.371,0.3597,0.3449,0.3951,0.4016,0.4017,0.4019,0.402,0.4021,0,0.2597,0.2592,0.2594,0.2623,0.2585,0.2638,0.266,0.2639,0.2659,0.2787,0.2885,0.3089,0.3284,0.3468,0.3572,0.3482,0.3374,0.3395,0.3144,0.3107,0.3597,0.3519,0.3437,0.3437,0.3437,0.3437,0.3438,0.3438,0.2555,0.2532,0.2543,0.2479,0.247,0.2417,0.2417,0.2407,0.2464,0.2506,0.2581,0.2717,0.2962,0.3115,0.3066,0.3029,0.2799,0.274,0.2712,0.3012,0.3042,0.307,0.2974,0.2779,0.2778,0.218,0.2174,0.217]},{"header":{"parameterUnit":"m.s-1","parameterCategory":2,"la1":30.2991,"la2":30.254,"lo1":-89.0895,"lo2":-89.0444,"dy":0.0017,"dx":0.0017,"nx":28,"ny":28,"refTime":"2025-07-29T21:00:00:Z","depth":"0","parameterNumber":3,"parameterNumberName":"V-component_of_CURRENTS"},"data":[0,0,0,0,0,0,0,0,0,0,0,0,0,0,0,0,0,0,0,0,0,0,0,0,0,0,0,0,0,0,0,0,0,0,0,0,0,0,0,0,0,0,0,0,0,0,0,0,0,0,0,0,0,0,0,0,0,0,0.0353,0.0353,0,0.0407,0.0408,0.0408,0.0424,0.0423,0.0423,0.0423,0.0323,0.032,0.0318,0,0,0,0,0,0,0,0,0,0,0,0,0,0.0325,0.0325,0.0353,0.0354,0.0354,0.0407,0.0408,0.0409,0.0424,0.0423,0.0423,0.0423,0.0323,0.0321,0.0318,0,0,0,0,0,0,0,0,0,0,0,0,0,0.0353,0.0325,0.0353,0.0369,0.0371,0.0407,0.0408,0.0409,0.0424,0.0423,0.0423,0.0423,0.0324,0.0321,0.0317,0.0302,0,0,0.0306,0.0304,0,0,0,0,0,0,0,0,0.0352,0.0354,0.0366,0.0368,0.037,0.0409,0.0362,0.0365,0.0424,0.0403,0.0423,0.0422,0.0338,0.0333,0.0345,0.0297,0.0293,0.0306,0.0303,0.0302,0.0301,0,0,0,0,0,0,0,0.035,0.0352,0.0374,0.0366,0.0369,0.0395,0.0398,0.0363,0.0368,0.0405,0.0406,0.0413,0.0338,0.0349,0.0342,0.0291,0.0306,0.0302,0.03,0.0299,0.0247,0.0247,0,0,0,0,0,0,0.0342,0.035,0.0372,0.0375,0.0361,0.0396,0.0399,0.0396,0.0372,0.0369,0.0414,0.0414,0.0355,0.0347,0.0339,0.0353,0.0302,0.0298,0.0296,0.0246,0.0247,0.0248,0,0,0,0,0,0,0.0341,0.0343,0.037,0.0365,0.0371,0.0396,0.0393,0.0397,0.0414,0.0381,0.0375,0.0426,0.0355,0.0344,0.032,0.0347,0.0297,0.0293,0.0245,0.0246,0.0247,0.0358,0,0,0,0,0,0,0.0339,0.0342,0.0339,0.0364,0.0371,0.0395,0.0394,0.0399,0.0419,0.042,0.0389,0.038,0.0354,0.0326,0.0317,0.0341,0.0291,0.0244,0.0245,0.0247,0.0354,0.0363,0.0371,0,0,0,0,0,0.0338,0.0339,0.0338,0.0341,0.0365,0.0396,0.0402,0.0419,0.042,0.0431,0.0414,0.0381,0.0329,0.0324,0.0313,0.0337,0.0243,0.0245,0.0247,0.035,0.0361,0.0371,0,0,0,0,0,0,0.0335,0.0341,0.0341,0.0346,0.0369,0.0399,0.041,0.0424,0.0424,0.0416,0.0387,0.0377,0.0371,0.0332,0.0327,0.0325,0.0282,0.0282,0.0364,0.0375,0.0383,0.0384,0.0288,0,0,0,0,0,0.033,0.0324,0.0347,0.0351,0.036,0.0386,0.0401,0.0413,0.0418,0.042,0.0404,0.038,0.0371,0.0354,0.0333,0.0322,0.0288,0.033,0.0339,0.0347,0.0339,0.0327,0.0334,0.0254,0.0254,0.0254,0,0,0.0332,0.0333,0.0333,0.0349,0.0365,0.0393,0.0394,0.0416,0.0442,0.0403,0.0421,0.0408,0.0375,0.038,0.0372,0.0348,0.0354,0.035,0.0357,0.0344,0.033,0.0337,0.0344,0.0255,0.0255,0.0254,0,0,0.0337,0.0333,0.0333,0.0354,0.0376,0.0396,0.0404,0.0435,0.0448,0.0462,0.0452,0.0457,0.0427,0.0429,0.0421,0.0458,0.0406,0.0449,0.0489,0.0479,0.0486,0.0491,0.0469,0.0471,0.0449,0.0449,0.045,0,0.0342,0.0347,0.0344,0.036,0.0388,0.04,0.0432,0.0448,0.0471,0.0488,0.0471,0.048,0.0455,0.048,0.05,0.048,0.0455,0.0458,0.0492,0.0497,0.05,0.0476,0.0477,0.0455,0.0454,0.0454,0.0453,0,0.0354,0.0367,0.0375,0.0396,0.0423,0.0452,0.0479,0.0501,0.0516,0.0539,0.0565,0.0547,0.0553,0.0557,0.0537,0.0564,0.0533,0.0513,0.047,0.0516,0.0486,0.0486,0.0463,0.0461,0.0459,0.0458,0,0,0.0353,0.0378,0.0385,0.0411,0.0449,0.0479,0.0515,0.0565,0.06,0.061,0.0657,0.0657,0.0654,0.0643,0.063,0.0621,0.0638,0.0579,0.0576,0.0565,0.0604,0.0568,0.0564,0.0625,0.0626,0.0626,0.0578,0,0.0373,0.0412,0.0423,0.0483,0.0515,0.0544,0.0583,0.0624,0.0652,0.0693,0.0691,0.0718,0.0684,0.0695,0.0686,0.0656,0.0638,0.0651,0.0552,0.0549,0.052,0.0563,0.0551,0.0506,0.0577,0.0577,0.0576,0,0.039,0.0417,0.047,0.0537,0.0554,0.0591,0.0669,0.0705,0.0754,0.0771,0.0795,0.0793,0.0803,0.0758,0.0715,0.0724,0.0666,0.063,0.0627,0.0549,0.0512,0.0468,0.0502,0.0381,0.0575,0.0575,0.0575,0,0.0399,0.046,0.0507,0.0531,0.0596,0.063,0.0672,0.0731,0.0774,0.0821,0.0855,0.0857,0.086,0.0803,0.0736,0.0723,0.0675,0.0647,0.0555,0.0551,0.0497,0.0488,0.0406,0.0597,0.0597,0.0597,0.0597,0,0.042,0.0459,0.0515,0.0539,0.0611,0.0649,0.0725,0.0763,0.0824,0.089,0.0892,0.0936,0.0868,0.0841,0.0762,0.0665,0.0692,0.0563,0.054,0.0535,0.0531,0.0385,0.0302,0.0595,0.0596,0.0596,0.0596,0,0.0413,0.0447,0.0505,0.0579,0.0609,0.0659,0.0756,0.0811,0.0859,0.0943,0.0961,0.099,0.0959,0.0884,0.0793,0.0696,0.053,0.056,0.0555,0.0532,0.0321,0.0245,0.011,0.0058,0.0447,0.0446,0.0445,0,0.0409,0.0433,0.0526,0.0571,0.0604,0.0684,0.0745,0.0817,0.0883,0.0986,0.1031,0.1032,0.1066,0.0924,0.075,0.0602,0.0492,0.0467,0.0435,0.0309,0.0207,0.0166,0.013,0.0409,0.0408,0.0407,0.0406,0,0.0396,0.0426,0.0475,0.0576,0.0647,0.0738,0.083,0.0888,0.0984,0.1068,0.1169,0.1209,0.1076,0.0956,0.0735,0.0601,0.0367,0.044,0.0318,0.0173,0.0114,0.0054,0.0432,0.0398,0.0399,0.0399,0.04,0.04,0.038,0.0418,0.0492,0.0589,0.0678,0.0791,0.0872,0.0984,0.1106,0.1271,0.1281,0.1392,0.1177,0.0886,0.0661,0.0259,0.0278,0.0166,0.0085,0.0057,-0.0001,0.035,0.0286,0.0286,0.0286,0.0286,0.0286,0,0.037,0.0425,0.0511,0.0632,0.0734,0.0789,0.0935,0.1038,0.1198,0.1372,0.1491,0.1474,0.118,0.0837,0.0301,-0.0006,-0.0116,-0.016,-0.0221,-0.0239,0.0081,0.0072,-0.0049,-0.0049,-0.0049,-0.0049,-0.0049,-0.0049,0.0374,0.0435,0.0494,0.0658,0.0751,0.0895,0.0984,0.1154,0.1311,0.1547,0.1663,0.1729,0.1454,0.0498,-0.0159,-0.0313,-0.0506,-0.0559,-0.0633,-0.0423,-0.0398,-0.0374,-0.04,-0.0619,-0.062,-0.0897,-0.0901,-0.0903]}],[{"header":{"parameterUnit":"m.s-1","parameterCategory":2,"la1":30.2991,"la2":30.254,"lo1":-89.0895,"lo2":-89.0444,"dy":0.0017,"dx":0.0017,"nx":28,"ny":28,"refTime":"2025-07-29T21:00:00:Z","depth":"2","parameterNumber":2,"parameterNumberName":"U-component_of_CURRENTS"},"data":[0,0,0,0,0,0,0,0,0,0,0,0,0,0,0,0,0,0,0,0,0,0,0,0,0,0,0,0,0,0,0,0,0,0,0,0,0,0,0,0,0,0,0,0,0,0,0,0,0,0,0,0,0,0,0,0,0,0,0.0937,0.0938,0,0.1011,0.1012,0.1012,0.1195,0.12,0.1204,0.1209,0.1336,0.1335,0.1334,0,0,0,0,0,0,0,0,0,0,0,0,0,0.1065,0.106,0.0937,0.0938,0.094,0.1011,0.1012,0.1012,0.1195,0.12,0.1205,0.1211,0.1336,0.1335,0.1334,0,0,0,0,0,0,0,0,0,0,0,0,0,0.1054,0.1059,0.0936,0.1044,0.1055,0.1011,0.1012,0.1012,0.1194,0.12,0.1207,0.1213,0.1336,0.1335,0.1334,0.1193,0,0,0.133,0.133,0,0,0,0,0,0,0,0,0.1055,0.1049,0.1027,0.1037,0.1049,0.1107,0.1104,0.1078,0.1192,0.1134,0.1209,0.1216,0.1263,0.1268,0.1258,0.1199,0.1205,0.133,0.133,0.1329,0.1329,0,0,0,0,0,0,0,0.1055,0.1047,0.096,0.1028,0.1041,0.1128,0.1132,0.11,0.1156,0.114,0.1155,0.1171,0.127,0.1258,0.1262,0.1207,0.133,0.1329,0.1329,0.1328,0.1421,0.1424,0,0,0,0,0,0,0.1044,0.1046,0.0958,0.0963,0.1076,0.112,0.1125,0.1076,0.1156,0.1176,0.1165,0.1179,0.1257,0.1263,0.1268,0.1309,0.1329,0.1328,0.1327,0.1418,0.1422,0.1425,0,0,0,0,0,0,0.1045,0.1032,0.0955,0.1017,0.1014,0.1111,0.1055,0.1074,0.1187,0.1176,0.1198,0.1274,0.1262,0.1269,0.1234,0.1308,0.1328,0.1326,0.1414,0.1419,0.1424,0.1261,0,0,0,0,0,0,0.1047,0.103,0.103,0.1012,0.101,0.0975,0.105,0.1071,0.1182,0.1204,0.1272,0.1285,0.1268,0.1234,0.1232,0.1307,0.1326,0.141,0.1417,0.1422,0.1262,0.1259,0.1257,0,0,0,0,0,0.105,0.098,0.1027,0.1021,0.099,0.0976,0.0982,0.1072,0.1182,0.1205,0.1204,0.1289,0.1281,0.1228,0.1227,0.1305,0.1408,0.1415,0.1422,0.1263,0.126,0.1257,0,0,0,0,0,0,0.1031,0.0992,0.1044,0.097,0.1011,0.1011,0.1039,0.1125,0.1148,0.1191,0.1215,0.1219,0.1232,0.1296,0.1242,0.1372,0.1406,0.1412,0.1287,0.1284,0.1282,0.1338,0.1325,0,0,0,0,0,0.1023,0.097,0.0982,0.0939,0.096,0.1033,0.1063,0.1127,0.1132,0.1163,0.1193,0.1248,0.1239,0.1281,0.1267,0.1284,0.1347,0.1384,0.1381,0.1377,0.1435,0.1498,0.1503,0.1449,0.1449,0.1449,0,0,0.0995,0.0983,0.0951,0.0938,0.0976,0.0999,0.1068,0.1115,0.1159,0.1157,0.1209,0.1194,0.123,0.122,0.1255,0.13,0.1421,0.1387,0.1381,0.1443,0.1505,0.1509,0.1513,0.1454,0.1453,0.1452,0,0,0.0979,0.0919,0.0934,0.0929,0.1003,0.1015,0.1063,0.1109,0.1166,0.117,0.1183,0.1186,0.1236,0.1223,0.1239,0.1237,0.1363,0.1337,0.1395,0.145,0.1453,0.1457,0.1488,0.1496,0.1383,0.1382,0.1382,0,0.0995,0.0949,0.0943,0.0968,0.0957,0.1044,0.1073,0.1104,0.114,0.1163,0.1203,0.1236,0.1234,0.1229,0.1237,0.1226,0.1297,0.1365,0.1437,0.1443,0.145,0.1482,0.1492,0.1375,0.1376,0.1377,0.1378,0,0.0993,0.097,0.0956,0.0998,0.1013,0.0991,0.1042,0.1088,0.1175,0.1215,0.1247,0.119,0.1257,0.1262,0.1239,0.1319,0.1359,0.1366,0.1415,0.1443,0.1477,0.1491,0.1365,0.1368,0.137,0.1372,0,0,0.0904,0.0961,0.0926,0.0979,0.0988,0.0994,0.1044,0.1089,0.1163,0.1206,0.1281,0.1238,0.1291,0.1319,0.1308,0.1361,0.1396,0.1425,0.1431,0.1406,0.1541,0.1457,0.1465,0.143,0.1434,0.1436,0.1521,0,0.0903,0.0934,0.0944,0.096,0.0981,0.1005,0.1038,0.1104,0.1167,0.124,0.1259,0.1316,0.1298,0.1346,0.1381,0.1352,0.1443,0.1375,0.157,0.1576,0.1454,0.1481,0.1354,0.1414,0.1535,0.1538,0.154,0,0.0932,0.0881,0.0925,0.0962,0.0972,0.1022,0.1069,0.1116,0.1217,0.1295,0.1376,0.1409,0.1436,0.1469,0.1502,0.1476,0.1563,0.1565,0.1568,0.1578,0.1521,0.1427,0.1436,0.1564,0.1562,0.156,0.1559,0,0.0933,0.0902,0.093,0.0901,0.0943,0.1004,0.1058,0.1156,0.1201,0.1378,0.1445,0.1494,0.1545,0.1609,0.1581,0.1603,0.1628,0.1644,0.1664,0.1656,0.1637,0.1623,0.1807,0.1807,0.1807,0.1807,0.1806,0,0.0943,0.0919,0.094,0.0918,0.0941,0.1013,0.1096,0.121,0.1311,0.1383,0.1503,0.1557,0.1611,0.1597,0.1618,0.1619,0.1665,0.17,0.1688,0.1572,0.1552,0.1776,0.1771,0.181,0.1809,0.1808,0.1808,0,0.1,0.1009,0.1005,0.0979,0.1012,0.1041,0.1137,0.1178,0.1319,0.1423,0.1498,0.1613,0.1662,0.1627,0.1698,0.1655,0.1661,0.1701,0.1532,0.1502,0.1667,0.1654,0.1767,0.1766,0.1764,0.1763,0.1761,0,0.108,0.1103,0.105,0.1054,0.1063,0.109,0.114,0.1241,0.1277,0.1429,0.1474,0.159,0.1665,0.1643,0.1619,0.1631,0.1701,0.1534,0.1567,0.1694,0.1672,0.1661,0.165,0.1463,0.146,0.1457,0.1455,0,0.1119,0.1118,0.1053,0.1056,0.1104,0.1087,0.1165,0.1173,0.128,0.1377,0.1504,0.1582,0.1637,0.1574,0.1558,0.1555,0.1489,0.1483,0.1671,0.1474,0.1409,0.1386,0.1386,0.1429,0.1432,0.1434,0.1435,0.1436,0.1155,0.1069,0.104,0.1052,0.1101,0.1117,0.1125,0.1166,0.1237,0.1353,0.1416,0.1509,0.1383,0.1368,0.1327,0.1365,0.1482,0.1411,0.142,0.1431,0.1363,0.1296,0.1282,0.1284,0.1285,0.1286,0.1287,0,0.1098,0.1049,0.1052,0.1039,0.1098,0.1142,0.1158,0.1154,0.1238,0.1304,0.1403,0.1187,0.115,0.1159,0.1187,0.1162,0.1185,0.1146,0.1139,0.1162,0.1183,0.1103,0.0953,0.0952,0.0952,0.0952,0,0,0.099,0.0972,0.0926,0.1016,0.1101,0.1126,0.1139,0.1199,0.1226,0.1206,0.1215,0.1139,0.1117,0.0959,0.0917,0.0994,0.1107,0.0997,0.1256,0.1274,0.1296,0.131,0.1208,0,0,0,0,0]},{"header":{"parameterUnit":"m.s-1","parameterCategory":2,"la1":30.2991,"la2":30.254,"lo1":-89.0895,"lo2":-89.0444,"dy":0.0017,"dx":0.0017,"nx":28,"ny":28,"refTime":"2025-07-29T21:00:00:Z","depth":"2","parameterNumber":3,"parameterNumberName":"V-component_of_CURRENTS"},"data":[0,0,0,0,0,0,0,0,0,0,0,0,0,0,0,0,0,0,0,0,0,0,0,0,0,0,0,0,0,0,0,0,0,0,0,0,0,0,0,0,0,0,0,0,0,0,0,0,0,0,0,0,0,0,0,0,0,0,-0.0212,-0.0212,0,-0.0182,-0.0182,-0.0181,-0.0174,-0.0174,-0.0174,-0.0175,-0.0286,-0.0288,-0.0291,0,0,0,0,0,0,0,0,0,0,0,0,0,-0.0179,-0.018,-0.0212,-0.0212,-0.0211,-0.0182,-0.0182,-0.0181,-0.0174,-0.0174,-0.0174,-0.0175,-0.0285,-0.0288,-0.0291,0,0,0,0,0,0,0,0,0,0,0,0,0,-0.0175,-0.018,-0.0212,-0.0205,-0.0204,-0.0182,-0.0182,-0.0181,-0.0174,-0.0174,-0.0175,-0.0175,-0.0284,-0.0288,-0.0292,-0.0308,0,0,-0.0304,-0.0306,0,0,0,0,0,0,0,0,-0.0175,-0.0176,-0.0206,-0.0205,-0.0204,-0.0183,-0.021,-0.0231,-0.0174,-0.0184,-0.0175,-0.0175,-0.0265,-0.027,-0.026,-0.0313,-0.0318,-0.0304,-0.0307,-0.0308,-0.031,0,0,0,0,0,0,0,-0.0175,-0.0177,-0.0199,-0.0206,-0.0205,-0.0174,-0.0175,-0.0213,-0.0224,-0.0183,-0.0183,-0.0181,-0.0265,-0.0256,-0.0263,-0.032,-0.0304,-0.0308,-0.031,-0.0312,-0.0355,-0.0354,0,0,0,0,0,0,-0.0185,-0.0178,-0.02,-0.0198,-0.0191,-0.0175,-0.0176,-0.0189,-0.0221,-0.0225,-0.0181,-0.0181,-0.0249,-0.0259,-0.0267,-0.0309,-0.0308,-0.0312,-0.0314,-0.0356,-0.0355,-0.0353,0,0,0,0,0,0,-0.0185,-0.0188,-0.0201,-0.0187,-0.0187,-0.0176,-0.019,-0.0188,-0.0172,-0.0217,-0.0224,-0.0166,-0.025,-0.0262,-0.0329,-0.0313,-0.0314,-0.0318,-0.0358,-0.0356,-0.0354,-0.0382,0,0,0,0,0,0,-0.0184,-0.0189,-0.0198,-0.0188,-0.0188,-0.0181,-0.019,-0.0187,-0.0171,-0.017,-0.0208,-0.0218,-0.0251,-0.0323,-0.0333,-0.0319,-0.0321,-0.0359,-0.0357,-0.0355,-0.0382,-0.0381,-0.038,0,0,0,0,0,-0.0183,-0.0193,-0.0199,-0.0201,-0.0203,-0.018,-0.0176,-0.0169,-0.017,-0.0157,-0.0213,-0.0217,-0.0312,-0.0328,-0.0339,-0.0326,-0.0361,-0.0358,-0.0355,-0.0383,-0.0381,-0.038,0,0,0,0,0,0,-0.0174,-0.0193,-0.0199,-0.0213,-0.0195,-0.0179,-0.0174,-0.0161,-0.0186,-0.0203,-0.0241,-0.0257,-0.0305,-0.0304,-0.0319,-0.0321,-0.032,-0.0319,-0.0336,-0.0335,-0.0334,-0.0311,-0.0324,0,0,0,0,0,-0.018,-0.0203,-0.0194,-0.0205,-0.0199,-0.0183,-0.0173,-0.0167,-0.0186,-0.0194,-0.0219,-0.025,-0.0298,-0.0312,-0.035,-0.0367,-0.0363,-0.0347,-0.0346,-0.0345,-0.0329,-0.0331,-0.033,-0.0344,-0.0344,-0.0344,0,0,-0.0181,-0.0194,-0.0206,-0.0206,-0.0198,-0.0182,-0.0178,-0.0165,-0.0159,-0.0209,-0.0223,-0.0267,-0.0307,-0.034,-0.0352,-0.0339,-0.0339,-0.0341,-0.0341,-0.0325,-0.0328,-0.0327,-0.0326,-0.0342,-0.0343,-0.0343,0,0,-0.017,-0.0204,-0.0201,-0.0197,-0.0187,-0.0183,-0.0174,-0.0155,-0.0157,-0.0179,-0.0223,-0.0264,-0.0296,-0.0332,-0.0355,-0.0359,-0.0349,-0.0339,-0.0305,-0.0309,-0.0308,-0.0308,-0.0311,-0.0311,-0.0318,-0.0318,-0.0318,0,-0.0164,-0.0171,-0.0191,-0.0179,-0.0178,-0.018,-0.0159,-0.0163,-0.0167,-0.0177,-0.0184,-0.0248,-0.0292,-0.0344,-0.0342,-0.036,-0.0352,-0.0323,-0.0311,-0.031,-0.0309,-0.0313,-0.0312,-0.0319,-0.0319,-0.0319,-0.0318,0,-0.0142,-0.0148,-0.0147,-0.0149,-0.0144,-0.0137,-0.0143,-0.0143,-0.0148,-0.0148,-0.019,-0.0252,-0.0274,-0.0288,-0.0326,-0.033,-0.0325,-0.0333,-0.0325,-0.031,-0.0314,-0.0313,-0.032,-0.032,-0.032,-0.0319,0,0,-0.0135,-0.013,-0.0133,-0.0118,-0.0135,-0.0117,-0.0136,-0.0135,-0.0126,-0.0151,-0.0143,-0.0231,-0.0237,-0.026,-0.03,-0.0301,-0.0309,-0.0298,-0.0298,-0.0318,-0.0307,-0.0308,-0.0307,-0.0312,-0.0312,-0.0311,-0.0318,0,-0.0107,-0.0071,-0.0091,-0.0065,-0.0043,-0.0077,-0.0081,-0.0092,-0.0103,-0.0098,-0.0166,-0.0175,-0.0233,-0.0231,-0.0256,-0.0322,-0.0303,-0.0306,-0.0302,-0.0301,-0.0319,-0.0305,-0.0302,-0.0306,-0.0317,-0.0316,-0.0316,0,-0.0067,-0.006,-0.0017,-0.0008,-0.0003,0.0004,-0.0002,-0.0004,-0.0032,-0.0032,-0.0067,-0.0099,-0.0162,-0.0167,-0.0261,-0.0258,-0.0258,-0.0289,-0.029,-0.0275,-0.0299,-0.0317,-0.0304,-0.0314,-0.0314,-0.0315,-0.0315,0,-0.0019,-0.0001,0.0035,0.0032,0.0037,0.0039,0.0036,0.0018,0.0034,0.0024,0.0052,-0.0042,-0.0053,-0.012,-0.0214,-0.0218,-0.0285,-0.0301,-0.0293,-0.0294,-0.028,-0.028,-0.0281,-0.0281,-0.0281,-0.0281,-0.0281,0,0.0026,0.0054,0.0065,0.0075,0.0116,0.0094,0.0129,0.0124,0.0128,0.0164,0.0101,0.0124,-0.0027,-0.0095,-0.0183,-0.0264,-0.0264,-0.0279,-0.0291,-0.0289,-0.029,-0.0283,-0.0283,-0.0281,-0.0281,-0.0281,-0.0281,0,0.0092,0.0099,0.0137,0.0136,0.0149,0.0176,0.0203,0.0241,0.0233,0.0282,0.0293,0.0247,0.015,-0.0009,-0.0116,-0.0198,-0.0289,-0.0279,-0.0275,-0.0286,-0.0297,-0.0298,-0.0286,-0.0286,-0.0286,-0.0286,-0.0286,0,0.0133,0.016,0.0186,0.0223,0.0227,0.0263,0.0307,0.0305,0.0351,0.0364,0.0408,0.0346,0.0341,0.0133,-0.0062,-0.0227,-0.024,-0.0278,-0.028,-0.0282,-0.0295,-0.0296,-0.0298,-0.0279,-0.0279,-0.0279,-0.0278,0,0.0185,0.0197,0.0224,0.0292,0.0346,0.0417,0.0468,0.0514,0.0521,0.0581,0.0636,0.0636,0.0435,0.0237,-0.0001,-0.0097,-0.0284,-0.0277,-0.0281,-0.0277,-0.0275,-0.0288,-0.0289,-0.0278,-0.0278,-0.0278,-0.0278,-0.0278,0.0211,0.0251,0.0289,0.0364,0.0447,0.0557,0.0617,0.0696,0.0792,0.0871,0.0823,0.0804,0.0448,0.0147,-0.0043,-0.0217,-0.0205,-0.0278,-0.0279,-0.0279,-0.0275,-0.0274,-0.0276,-0.0276,-0.0276,-0.0276,-0.0276,0,0.0233,0.0283,0.0362,0.0463,0.0584,0.0605,0.0729,0.0812,0.0952,0.0993,0.1054,0.0707,0.0492,0.0167,-0.0083,-0.0244,-0.0242,-0.0285,-0.0286,-0.0286,-0.0286,-0.0283,-0.0285,-0.0286,-0.0286,-0.0286,0,0,0.0261,0.0318,0.0374,0.0561,0.0648,0.0799,0.087,0.1021,0.1074,0.113,0.1069,0.0909,0.0474,0.0221,-0.0035,-0.0123,-0.013,-0.012,-0.0097,-0.0065,-0.0061,-0.0275,-0.027,0,0,0,0,0]}],[{"header":{"parameterUnit":"m.s-1","parameterCategory":2,"la1":30.2991,"la2":30.254,"lo1":-89.0895,"lo2":-89.0444,"dy":0.0017,"dx":0.0017,"nx":28,"ny":28,"refTime":"2025-07-29T21:00:00:Z","depth":"4","parameterNumber":2,"parameterNumberName":"U-component_of_CURRENTS"},"data":[0,0,0,0,0,0,0,0,0,0,0,0,0,0,0,0,0,0,0,0,0,0,0,0,0,0,0,0,0,0,0,0,0,0,0,0,0,0,0,0,0,0,0,0,0,0,0,0,0,0,0,0,0,0,0,0,0,0,-0.0326,-0.0326,0,-0.0319,-0.0318,-0.0318,-0.0303,-0.0303,-0.0303,-0.0303,-0.0324,-0.0325,-0.0325,0,0,0,0,0,0,0,0,0,0,0,0,0,-0.0289,-0.029,-0.0326,-0.0326,-0.0326,-0.0319,-0.0318,-0.0318,-0.0303,-0.0303,-0.0303,-0.0303,-0.0324,-0.0325,-0.0325,0,0,0,0,0,0,0,0,0,0,0,0,0,-0.0292,-0.029,-0.0326,-0.0322,-0.0321,-0.0319,-0.0318,-0.0318,-0.0303,-0.0303,-0.0303,-0.0304,-0.0324,-0.0325,-0.0325,-0.0326,0,0,-0.0327,-0.0328,0,0,0,0,0,0,0,0,-0.0292,-0.0292,-0.0322,-0.0322,-0.0322,-0.0316,-0.0313,-0.0323,-0.0303,-0.0305,-0.0303,-0.0304,-0.0327,-0.0328,-0.0319,-0.0327,-0.0328,-0.0328,-0.0328,-0.0328,-0.0328,0,0,0,0,0,0,0,-0.0291,-0.0292,-0.0318,-0.0322,-0.0322,-0.0308,-0.0308,-0.0314,-0.0312,-0.0305,-0.0305,-0.0311,-0.0327,-0.0318,-0.0319,-0.0328,-0.0328,-0.0328,-0.0329,-0.0329,-0.0412,-0.0414,0,0,0,0,0,0,-0.0303,-0.0293,-0.0319,-0.0319,-0.0312,-0.0309,-0.0309,-0.0314,-0.0311,-0.0312,-0.0311,-0.0311,-0.0317,-0.0319,-0.032,-0.0382,-0.0328,-0.0329,-0.0329,-0.0411,-0.0413,-0.0415,0,0,0,0,0,0,-0.0303,-0.0306,-0.0319,-0.0309,-0.031,-0.031,-0.0315,-0.0314,-0.0322,-0.0317,-0.0317,-0.0323,-0.0317,-0.0319,-0.0339,-0.038,-0.0329,-0.033,-0.0409,-0.0411,-0.0414,-0.0466,0,0,0,0,0,0,-0.0301,-0.0305,-0.0305,-0.031,-0.0312,-0.033,-0.0315,-0.0314,-0.0327,-0.0326,-0.0327,-0.0328,-0.0317,-0.0338,-0.0339,-0.038,-0.033,-0.0406,-0.041,-0.0413,-0.0462,-0.047,-0.0477,0,0,0,0,0,-0.03,-0.0301,-0.0304,-0.0307,-0.0313,-0.0331,-0.033,-0.0326,-0.0328,-0.0333,-0.0335,-0.0329,-0.0362,-0.0339,-0.0341,-0.0383,-0.0405,-0.0409,-0.0413,-0.0459,-0.0469,-0.0477,0,0,0,0,0,0,-0.0291,-0.03,-0.0304,-0.031,-0.0327,-0.033,-0.0327,-0.0339,-0.0343,-0.0342,-0.0339,-0.034,-0.0376,-0.0373,-0.0349,-0.042,-0.0388,-0.0393,-0.0423,-0.0432,-0.0439,-0.0422,-0.0331,0,0,0,0,0,-0.0289,-0.0292,-0.0307,-0.0317,-0.0318,-0.0328,-0.0333,-0.0341,-0.035,-0.0351,-0.0373,-0.0385,-0.0392,-0.0405,-0.0414,-0.0446,-0.0419,-0.048,-0.0488,-0.0494,-0.0483,-0.0479,-0.0484,-0.0428,-0.0428,-0.0428,0,0,-0.0294,-0.0298,-0.0301,-0.0315,-0.0317,-0.0324,-0.033,-0.0346,-0.0363,-0.0355,-0.0393,-0.0411,-0.0406,-0.0441,-0.0459,-0.0445,-0.0497,-0.0499,-0.0504,-0.0489,-0.0483,-0.0488,-0.0493,-0.0431,-0.0431,-0.043,0,0,-0.0295,-0.0301,-0.0296,-0.0303,-0.0317,-0.033,-0.0343,-0.0374,-0.0391,-0.0436,-0.0431,-0.0462,-0.0505,-0.0498,-0.0497,-0.0551,-0.0535,-0.0585,-0.0612,-0.0609,-0.0613,-0.0616,-0.0587,-0.0587,-0.0593,-0.0593,-0.0593,0,-0.0296,-0.0293,-0.0302,-0.0295,-0.0302,-0.0337,-0.0341,-0.0362,-0.041,-0.0428,-0.046,-0.0518,-0.0521,-0.0528,-0.0559,-0.0565,-0.0561,-0.0575,-0.0616,-0.0619,-0.0621,-0.0591,-0.059,-0.0596,-0.0596,-0.0596,-0.0595,0,-0.0291,-0.0285,-0.0283,-0.0286,-0.0301,-0.0314,-0.0346,-0.0382,-0.0434,-0.0468,-0.0526,-0.055,-0.0581,-0.0607,-0.0602,-0.0632,-0.0623,-0.0621,-0.0586,-0.0629,-0.0595,-0.0593,-0.06,-0.0599,-0.0599,-0.0598,0,0,-0.0301,-0.0281,-0.0278,-0.0272,-0.0296,-0.031,-0.034,-0.0378,-0.0396,-0.0486,-0.0517,-0.0573,-0.0617,-0.0618,-0.0636,-0.0648,-0.0665,-0.066,-0.0658,-0.0618,-0.0655,-0.0526,-0.051,-0.0688,-0.0688,-0.0688,-0.0624,0,-0.0293,-0.0266,-0.0272,-0.0274,-0.0265,-0.0297,-0.0325,-0.0367,-0.0421,-0.0467,-0.0515,-0.0563,-0.0611,-0.0645,-0.0668,-0.0655,-0.0665,-0.0682,-0.063,-0.0627,-0.0496,-0.0505,-0.0689,-0.0623,-0.0622,-0.0622,-0.0621,0,-0.0283,-0.0265,-0.0249,-0.0254,-0.0256,-0.0282,-0.0321,-0.0357,-0.0409,-0.0456,-0.0518,-0.0556,-0.0591,-0.0634,-0.0645,-0.0665,-0.0672,-0.0668,-0.0665,-0.0518,-0.0494,-0.0573,-0.0617,-0.0618,-0.0618,-0.0618,-0.0618,0,-0.027,-0.0255,-0.0242,-0.024,-0.0254,-0.0274,-0.0316,-0.0365,-0.039,-0.046,-0.0476,-0.0539,-0.0558,-0.0595,-0.0598,-0.0639,-0.0583,-0.0624,-0.0507,-0.0497,-0.061,-0.0608,-0.063,-0.063,-0.063,-0.063,-0.063,0,-0.0255,-0.0243,-0.0239,-0.0225,-0.0241,-0.0277,-0.0314,-0.0354,-0.0402,-0.0406,-0.0488,-0.0469,-0.0557,-0.0533,-0.0568,-0.0502,-0.0557,-0.0493,-0.0469,-0.0635,-0.0636,-0.0608,-0.0606,-0.0628,-0.0628,-0.0629,-0.0629,0,-0.0237,-0.0227,-0.0207,-0.0214,-0.0228,-0.0254,-0.0313,-0.0324,-0.0387,-0.0382,-0.0404,-0.0417,-0.0377,-0.041,-0.0416,-0.042,-0.0394,-0.036,-0.0496,-0.0484,-0.0327,-0.0329,-0.0237,-0.0232,-0.0227,-0.0224,-0.0221,0,-0.0225,-0.0208,-0.0189,-0.0185,-0.0196,-0.0239,-0.0252,-0.0324,-0.032,-0.0317,-0.0283,-0.0252,-0.0251,-0.0148,-0.0202,-0.0213,-0.0228,-0.0222,-0.0325,-0.0298,-0.0285,-0.0295,-0.0303,-0.0214,-0.0212,-0.0211,-0.021,0,-0.0203,-0.0191,-0.0164,-0.0148,-0.0158,-0.0157,-0.0183,-0.0175,-0.0217,-0.025,-0.0159,-0.0133,-0.005,-0.0053,-0.0043,-0.0067,-0.0236,-0.0178,-0.019,-0.0286,-0.0269,-0.0263,-0.0276,-0.0195,-0.0197,-0.0198,-0.0199,0,-0.0186,-0.016,-0.0123,-0.0116,-0.0108,-0.0075,-0.01,-0.0073,-0.0083,-0.0086,-0.0028,-0.0,-0.0005,0.0033,0.0046,0.0044,0.0008,-0.004,-0.006,-0.0077,-0.0057,-0.0014,0.0178,0,0,0,0,0,-0.0168,-0.0132,-0.0102,-0.007,-0.0054,-0.005,-0.0037,-0.0054,-0.0069,0.0012,-0.0024,0.0052,0.0095,0.0115,0.0138,0.011,-0.0,0.0137,-0.0068,-0.011,-0.0128,-0.012,0,0,0,0,0,0,-0.0152,-0.0117,-0.0084,-0.0036,-0.0009,0.0019,0.0034,0.0032,0.0068,0.0052,0.008,0.0062,0.0103,0.008,0.014,0.0141,0.0016,0.014,0.0141,-0.01,-0.0116,-0.013,-0.0128,0,0,0,0,0]},{"header":{"parameterUnit":"m.s-1","parameterCategory":2,"la1":30.2991,"la2":30.254,"lo1":-89.0895,"lo2":-89.0444,"dy":0.0017,"dx":0.0017,"nx":28,"ny":28,"refTime":"2025-07-29T21:00:00:Z","depth":"4","parameterNumber":3,"parameterNumberName":"V-component_of_CURRENTS"},"data":[0,0,0,0,0,0,0,0,0,0,0,0,0,0,0,0,0,0,0,0,0,0,0,0,0,0,0,0,0,0,0,0,0,0,0,0,0,0,0,0,0,0,0,0,0,0,0,0,0,0,0,0,0,0,0,0,0,0,0.0154,0.0154,0,0.012,0.012,0.0119,0.0135,0.0136,0.0137,0.0138,0.0121,0.012,0.0119,0,0,0,0,0,0,0,0,0,0,0,0,0,0.0211,0.0209,0.0154,0.0154,0.0153,0.012,0.012,0.0119,0.0135,0.0136,0.0138,0.0139,0.0122,0.012,0.0118,0,0,0,0,0,0,0,0,0,0,0,0,0,0.0181,0.0209,0.0154,0.0159,0.0159,0.0121,0.012,0.0119,0.0135,0.0136,0.0138,0.0139,0.0122,0.012,0.0118,0.0074,0,0,0.0112,0.0111,0,0,0,0,0,0,0,0,0.0182,0.0178,0.0158,0.0158,0.0159,0.0135,0.0134,0.0105,0.0134,0.0142,0.0138,0.014,0.0128,0.0125,0.0112,0.0073,0.0073,0.0112,0.011,0.0109,0.0109,0,0,0,0,0,0,0,0.0184,0.018,0.0139,0.0158,0.0158,0.0156,0.0153,0.0128,0.0125,0.0141,0.0143,0.0142,0.0128,0.0114,0.0112,0.0072,0.0112,0.011,0.0108,0.0108,-0.0016,-0.0018,0,0,0,0,0,0,0.0191,0.0181,0.014,0.0138,0.0177,0.0154,0.0151,0.014,0.0125,0.0125,0.0141,0.0143,0.0117,0.0115,0.0112,0.0066,0.0109,0.0107,0.0106,-0.0014,-0.0016,-0.0018,0,0,0,0,0,0,0.0193,0.0188,0.0141,0.0161,0.0156,0.0151,0.0139,0.0138,0.0133,0.0125,0.0125,0.0138,0.0118,0.0115,0.008,0.0066,0.0106,0.0104,-0.0011,-0.0014,-0.0017,-0.003,0,0,0,0,0,0,0.0194,0.0188,0.0185,0.0161,0.0155,0.0124,0.0137,0.0136,0.0131,0.0133,0.0122,0.0121,0.0119,0.0083,0.0078,0.0063,0.0103,-0.0009,-0.0013,-0.0016,-0.0027,-0.0033,-0.0038,0,0,0,0,0,0.0196,0.0188,0.0185,0.018,0.015,0.0124,0.012,0.0121,0.0129,0.0123,0.0104,0.0122,0.0056,0.0079,0.0074,0.0059,-0.0007,-0.0012,-0.0016,-0.0025,-0.0032,-0.0038,0,0,0,0,0,0,0.0209,0.0188,0.0185,0.017,0.0151,0.0128,0.0125,0.0119,0.0097,0.01,0.0095,0.0091,0.0052,0.0048,0.0074,0.0008,0.0028,0.0022,0.0023,0.0016,0.001,0.0024,0.0101,0,0,0,0,0,0.021,0.02,0.0176,0.0163,0.0156,0.0138,0.0129,0.0123,0.0101,0.0095,0.0082,0.0059,0.0025,0.0018,-0.0013,-0.0047,-0.0041,-0.0063,-0.0068,-0.0073,-0.0069,-0.0092,-0.0098,-0.0033,-0.0033,-0.0033,0,0,0.021,0.0199,0.0192,0.0166,0.0153,0.0129,0.0136,0.0119,0.0091,0.0093,0.0056,0.0036,0.0007,-0.0035,-0.0051,-0.0033,-0.0088,-0.0078,-0.0082,-0.0075,-0.0097,-0.0103,-0.0109,-0.0036,-0.0035,-0.0035,0,0,0.0206,0.0195,0.0186,0.0169,0.0149,0.0128,0.0123,0.0094,0.0078,0.003,0.0022,-0.001,-0.0055,-0.0077,-0.0096,-0.0155,-0.0125,-0.016,-0.0164,-0.0187,-0.0192,-0.0196,-0.0185,-0.0188,-0.0152,-0.0152,-0.0152,0,0.0208,0.0187,0.0179,0.0164,0.0145,0.0127,0.0102,0.0073,0.0034,0.0009,0.0017,-0.0066,-0.0081,-0.0136,-0.0148,-0.0165,-0.0156,-0.013,-0.0191,-0.0195,-0.0199,-0.0187,-0.019,-0.0154,-0.0153,-0.0153,-0.0153,0,0.0191,0.0175,0.0168,0.0138,0.0117,0.0091,0.0053,0.0024,-0.0001,-0.0032,-0.0093,-0.0122,-0.016,-0.0176,-0.0175,-0.0215,-0.0191,-0.0199,-0.0164,-0.0206,-0.0191,-0.0194,-0.0155,-0.0155,-0.0154,-0.0154,0,0,0.0186,0.016,0.0158,0.0136,0.0098,0.0071,0.0025,-0.0032,-0.0069,-0.0107,-0.0156,-0.0209,-0.0206,-0.0227,-0.0231,-0.0243,-0.0255,-0.0218,-0.0219,-0.0188,-0.0272,-0.0273,-0.0275,-0.0263,-0.0264,-0.0265,-0.0245,0,0.0171,0.0141,0.0128,0.008,0.0053,0.0022,-0.0025,-0.0076,-0.0118,-0.0169,-0.0204,-0.025,-0.0232,-0.0241,-0.0253,-0.0264,-0.0265,-0.0258,-0.0253,-0.0252,-0.0233,-0.0281,-0.0268,-0.0247,-0.0248,-0.0248,-0.0249,0,0.015,0.0131,0.0093,0.0037,0.0022,-0.0011,-0.0086,-0.013,-0.0198,-0.0225,-0.0259,-0.0277,-0.0302,-0.0284,-0.0301,-0.0289,-0.0274,-0.0277,-0.0277,-0.0273,-0.026,-0.0203,-0.0254,-0.0253,-0.0253,-0.0253,-0.0252,0,0.0138,0.0097,0.0064,0.0047,-0.0012,-0.0043,-0.0083,-0.015,-0.0192,-0.025,-0.027,-0.0309,-0.0321,-0.0324,-0.0313,-0.03,-0.033,-0.032,-0.0306,-0.0304,-0.0298,-0.0294,-0.0332,-0.0332,-0.0332,-0.0332,-0.0332,0,0.0113,0.0083,0.0056,0.0034,-0.0023,-0.0058,-0.0124,-0.0165,-0.0222,-0.0262,-0.0287,-0.0305,-0.0328,-0.0343,-0.0328,-0.0327,-0.034,-0.0312,-0.0311,-0.0304,-0.0301,-0.0298,-0.0295,-0.0332,-0.0332,-0.0332,-0.0332,0,0.0097,0.0084,0.0041,-0.0009,-0.003,-0.0071,-0.014,-0.0185,-0.0224,-0.0269,-0.0278,-0.0307,-0.0312,-0.0336,-0.0347,-0.0344,-0.035,-0.0343,-0.0321,-0.0317,-0.0295,-0.0293,-0.032,-0.032,-0.032,-0.032,-0.032,0,0.0082,0.0063,0.0018,-0.0006,-0.003,-0.0088,-0.013,-0.0184,-0.0213,-0.0258,-0.0269,-0.0291,-0.0302,-0.032,-0.0341,-0.0344,-0.0339,-0.0342,-0.0329,-0.0304,-0.03,-0.0297,-0.0295,-0.032,-0.0321,-0.0321,-0.0321,0,0.0049,0.0044,0.0016,-0.0021,-0.006,-0.0108,-0.0157,-0.0174,-0.0219,-0.025,-0.0253,-0.0269,-0.0284,-0.0299,-0.032,-0.0316,-0.0349,-0.0342,-0.0341,-0.0329,-0.0305,-0.03,-0.0297,-0.0321,-0.0321,-0.0321,-0.0321,0,0.0031,0.0012,-0.0009,-0.0043,-0.0078,-0.0107,-0.0144,-0.0168,-0.0199,-0.0229,-0.0222,-0.0244,-0.0264,-0.0283,-0.0295,-0.0311,-0.0296,-0.0294,-0.0295,-0.0295,-0.0303,-0.027,-0.028,0,0,0,0,0,0.0011,-0.0005,-0.0035,-0.0063,-0.0086,-0.0101,-0.0149,-0.0175,-0.02,-0.0196,-0.021,-0.0216,-0.0239,-0.0252,-0.0261,-0.0291,-0.0305,-0.0304,-0.0303,-0.0323,-0.0322,-0.0338,0,0,0,0,0,0,-0.0008,-0.003,-0.0035,-0.0056,-0.0064,-0.0096,-0.0117,-0.0141,-0.0139,-0.0161,-0.0169,-0.0198,-0.0219,-0.0214,-0.0247,-0.0256,-0.0255,-0.0322,-0.0322,-0.0323,-0.0323,-0.0322,-0.0338,0,0,0,0,0]}]]